Lander, WY

2:10 AM MDT on August 30, 2016 (GMT -0600)
Hunt

Weather History for KLND - February, 2013

Change the Weather History Date:

Monday, February 18, 2013

  Actual Average Record
Temperature  
Mean Temperature 21 °F 26 °F  
Max Temperature 31 °F 37 °F 59 °F (1958)
Min Temperature 10 °F 15 °F -28 °F (1942)
Degree Days  
Heating Degree Days 44 39  
Month to date heating degree days 728 743  
Since 1 July heating degree days 4941 5333  
Cooling Degree Days 0 0  
Month to date cooling degree days 0 0  
Year to date cooling degree days 0 0  
Moisture  
Dew Point 7 °F    
Average Humidity 61    
Maximum Humidity 84    
Minimum Humidity 38    
Precipitation  
Precipitation 0.00 in 0.03 in 0.59 in (1913)
Month to date precipitation 0.87 0.34  
Year to date precipitation 1.57 0.75  
Snow  
Snow 0.00 in 0.30 in - ()
Month to date snowfall 17.1 6.3  
Since 1 July snowfall 45.5 49.6  
Snow Depth 4.00 in    
Sea Level Pressure  
Sea Level Pressure 30.08 in    
Wind  
Wind Speed 4 mph (South)    
Max Wind Speed 13 mph    
Max Gust Speed 14 mph    
Visibility 10 miles    
Events      
T = Trace of Precipitation, MM = Missing Value Source: NWS Daily Summary

Daily Weather History Graph

Daily Weather History Graph

Search for Another Location

Airport or City:

Trip Planner

Search our weather history database for the weather conditions in past years. The results will help you decide how hot, cold, wet, or windy it might be!

Date:

Astronomy

Feb. 18, 2013 Rise Set
Actual Time 7:07 AM MST 5:50 PM MST
Civil Twilight 6:38 AM MST 6:19 PM MST
Nautical Twilight 6:05 AM MST 6:52 PM MST
Astronomical Twilight 5:32 AM MST 7:25 PM MST
Moon 11:34 AM MST (2/18) 1:53 AM MST (2/18)
Length of Visible Light 11h 41m
Length of Day
10h 43m
First Quarter, 59% of the Moon is Illuminated
Feb 18
First Quarter
Feb 25
Full
Mar 4
Last Quarter
Mar 11
New
Mar 19
First Quarter

Hourly Weather History & Observations

Time (MST) Temp. Windchill Dew Point Humidity Pressure Visibility Wind Dir Wind Speed Gust Speed Precip Events Conditions
12:53 AM 19.0 °F - 10.0 °F 68% 29.98 in 10.0 mi Calm Calm - N/A   Clear
1:53 AM 19.0 °F 7.5 °F 7.0 °F 59% 30.00 in 10.0 mi SW 10.4 mph - N/A   Clear
2:53 AM 16.0 °F 8.8 °F 5.0 °F 62% 30.01 in 10.0 mi South 4.6 mph - N/A   Clear
3:53 AM 17.1 °F - 7.0 °F 65% 30.00 in 10.0 mi Calm Calm - N/A   Clear
4:53 AM 15.1 °F 6.4 °F 3.0 °F 59% 30.04 in 10.0 mi West 5.8 mph - N/A   Clear
5:53 AM 12.0 °F - 3.0 °F 67% 30.08 in 10.0 mi Calm Calm - N/A   Partly Cloudy
6:53 AM 17.1 °F 8.7 °F 1.9 °F 52% 30.08 in 10.0 mi WSW 5.8 mph - N/A   Clear
7:53 AM 12.0 °F - 3.0 °F 67% 30.12 in 10.0 mi Calm Calm - N/A   Partly Cloudy
8:53 AM 16.0 °F 10.4 °F 5.0 °F 62% 30.12 in 10.0 mi East 3.5 mph - N/A   Clear
9:53 AM 17.1 °F 10.0 °F 6.1 °F 62% 30.13 in 10.0 mi SSE 4.6 mph - N/A   Clear
10:53 AM 27.0 °F 23.0 °F 10.0 °F 49% 30.11 in 10.0 mi SSW 3.5 mph - N/A   Clear
11:53 AM 27.0 °F 23.0 °F 12.9 °F 56% 30.12 in 10.0 mi East 3.5 mph - N/A   Clear
12:53 PM 30.0 °F 22.4 °F 16.0 °F 56% 30.09 in 10.0 mi SE 8.1 mph - N/A   Clear
1:53 PM 30.9 °F 22.2 °F 12.9 °F 47% 30.08 in 10.0 mi SE 10.4 mph - N/A   Clear
2:53 PM 30.9 °F 22.2 °F 14.0 °F 50% 30.08 in 10.0 mi SE 10.4 mph - N/A   Clear
3:53 PM 28.9 °F 23.9 °F 12.0 °F 49% 30.08 in 10.0 mi South 4.6 mph - N/A   Clear
4:53 PM 28.0 °F 22.8 °F 8.1 °F 43% 30.08 in 10.0 mi SW 4.6 mph - N/A   Clear
5:53 PM 26.1 °F - 5.0 °F 41% 30.09 in 10.0 mi Calm Calm - N/A   Clear
6:53 PM 21.9 °F - 6.1 °F 51% 30.08 in 10.0 mi Calm Calm - N/A   Clear
7:53 PM 21.0 °F 14.6 °F 6.1 °F 53% 30.11 in 10.0 mi WNW 4.6 mph - N/A   Clear
8:53 PM 19.9 °F 13.4 °F 7.0 °F 57% 30.10 in 10.0 mi NNW 4.6 mph - N/A   Clear
9:53 PM 19.0 °F 10.0 °F 5.0 °F 54% 30.11 in 10.0 mi WNW 6.9 mph - N/A   Clear
10:53 PM 15.1 °F 7.7 °F 5.0 °F 64% 30.08 in 10.0 mi SE 4.6 mph - N/A   Clear
11:53 PM 16.0 °F 7.4 °F 6.1 °F 65% 30.06 in 10.0 mi ESE 5.8 mph - N/A   Clear